iso_date,epoch_date,Year,Hour,Min,DOY,POS_DOY,Lat,Lon,BP,Ts,Ta,has_bp,has_ts,has_ta,BuoyID,Buoy_Type,Buoy_Owner,Logistics,Hemisphere
2021-08-14T22:55:03Z,1628981703,2021,22,55,226.9549,226.9549,69.35596,-50.9498,-999.00,-999.00,-999.0,no,no,no,4433879,SPIT,USIABP,ICE-PPR<br>DiskoBay,North
2021-08-15T15:58:01Z,1629043082,2021,15,58,227.6653,227.6653,69.15925,-51.27359,-999.00,-999.00,-999.0,no,no,no,4433879,SPIT,USIABP,ICE-PPR<br>DiskoBay,North
2021-08-15T16:26:58Z,1629044819,2021,16,27,227.6854,227.6854,69.20961,-51.28976,-999.00,-999.00,-999.0,no,no,no,4433879,SPIT,USIABP,ICE-PPR<br>DiskoBay,North
2021-08-15T16:56:55Z,1629046616,2021,16,57,227.7062,227.7062,69.22134,-51.26309,-999.00,-999.00,-999.0,no,no,no,4433879,SPIT,USIABP,ICE-PPR<br>DiskoBay,North
2021-08-15T17:26:00Z,1629048361,2021,17,26,227.7264,227.7264,69.26372,-51.22469,-999.00,-999.00,-999.0,no,no,no,4433879,SPIT,USIABP,ICE-PPR<br>DiskoBay,North
2021-08-15T17:55:58Z,1629050158,2021,17,56,227.7472,227.7472,69.28951,-51.40777,-999.00,-999.00,-999.0,no,no,no,4433879,SPIT,USIABP,ICE-PPR<br>DiskoBay,North
2021-08-15T18:26:03Z,1629051964,2021,18,26,227.7681,227.7681,69.29929,-51.44614,-999.00,-999.00,-999.0,no,no,no,4433879,SPIT,USIABP,ICE-PPR<br>DiskoBay,North
2021-08-16T16:56:03Z,1629132964,2021,16,56,228.7056,228.7056,69.41409,-51.24597,-999.00,-999.00,-999.0,no,no,no,4433879,SPIT,USIABP,ICE-PPR<br>DiskoBay,North
2021-08-16T23:24:00Z,1629156240,2021,23,24,228.975,228.975,69.44624,-51.25156,-999.00,-999.00,-999.0,no,no,no,4433879,SPIT,USIABP,ICE-PPR<br>DiskoBay,North
2021-08-16T23:53:57Z,1629158037,2021,23,54,228.9958,228.9958,69.44911,-51.25075,-999.00,-999.00,-999.0,no,no,no,4433879,SPIT,USIABP,ICE-PPR<br>DiskoBay,North
2021-08-17T00:24:02Z,1629159843,2021,0,24,229.0167,229.0167,69.4516,-51.25024,-999.00,-999.00,-999.0,no,no,no,4433879,SPIT,USIABP,ICE-PPR<br>DiskoBay,North
2021-08-17T00:54:00Z,1629161640,2021,0,54,229.0375,229.0375,69.4539,-51.25067,-999.00,-999.00,-999.0,no,no,no,4433879,SPIT,USIABP,ICE-PPR<br>DiskoBay,North
2021-08-17T07:53:02Z,1629186782,2021,7,53,229.3285,229.3285,69.4894,-51.26492,-999.00,-999.00,-999.0,no,no,no,4433879,SPIT,USIABP,ICE-PPR<br>DiskoBay,North
2021-08-17T08:21:59Z,1629188519,2021,8,22,229.3486,229.3486,69.49215,-51.26829,-999.00,-999.00,-999.0,no,no,no,4433879,SPIT,USIABP,ICE-PPR<br>DiskoBay,North
2021-08-17T08:51:56Z,1629190316,2021,8,52,229.3694,229.3694,69.49494,-51.27172,-999.00,-999.00,-999.0,no,no,no,4433879,SPIT,USIABP,ICE-PPR<br>DiskoBay,North
2021-08-17T09:22:01Z,1629192122,2021,9,22,229.3903,229.3903,69.49755,-51.27472,-999.00,-999.00,-999.0,no,no,no,4433879,SPIT,USIABP,ICE-PPR<br>DiskoBay,North
2021-08-17T18:20:00Z,1629224401,2021,18,20,229.7639,229.7639,69.54616,-51.38431,-999.00,-999.00,-999.0,no,no,no,4433879,SPIT,USIABP,ICE-PPR<br>DiskoBay,North
2021-08-17T18:49:58Z,1629226198,2021,18,50,229.7847,229.7847,69.55159,-51.39299,-999.00,-999.00,-999.0,no,no,no,4433879,SPIT,USIABP,ICE-PPR<br>DiskoBay,North
2021-08-17T19:20:03Z,1629228004,2021,19,20,229.8056,229.8056,69.55692,-51.40097,-999.00,-999.00,-999.0,no,no,no,4433879,SPIT,USIABP,ICE-PPR<br>DiskoBay,North
2021-08-17T19:50:00Z,1629229801,2021,19,50,229.8264,229.8264,69.56297,-51.40891,-999.00,-999.00,-999.0,no,no,no,4433879,SPIT,USIABP,ICE-PPR<br>DiskoBay,North
2021-08-17T20:18:57Z,1629231538,2021,20,19,229.8465,229.8465,69.56891,-51.41589,-999.00,-999.00,-999.0,no,no,no,4433879,SPIT,USIABP,ICE-PPR<br>DiskoBay,North
2021-08-17T20:49:03Z,1629233343,2021,20,49,229.8674,229.8674,69.57501,-51.423,-999.00,-999.00,-999.0,no,no,no,4433879,SPIT,USIABP,ICE-PPR<br>DiskoBay,North
2021-08-17T21:19:00Z,1629235140,2021,21,19,229.8882,229.8882,69.58122,-51.42984,-999.00,-999.00,-999.0,no,no,no,4433879,SPIT,USIABP,ICE-PPR<br>DiskoBay,North
2021-08-17T21:48:57Z,1629236938,2021,21,49,229.909,229.909,69.58763,-51.43683,-999.00,-999.00,-999.0,no,no,no,4433879,SPIT,USIABP,ICE-PPR<br>DiskoBay,North
2021-08-17T22:19:03Z,1629238743,2021,22,19,229.9299,229.9299,69.59318,-51.44284,-999.00,-999.00,-999.0,no,no,no,4433879,SPIT,USIABP,ICE-PPR<br>DiskoBay,North
2021-08-17T22:50:00Z,1629240601,2021,22,50,229.9514,229.9514,69.59876,-51.45053,-999.00,-999.00,-999.0,no,no,no,4433879,SPIT,USIABP,ICE-PPR<br>DiskoBay,North
2021-08-17T23:18:57Z,1629242338,2021,23,19,229.9715,229.9715,69.60357,-51.45596,-999.00,-999.00,-999.0,no,no,no,4433879,SPIT,USIABP,ICE-PPR<br>DiskoBay,North
2021-08-17T23:49:03Z,1629244143,2021,23,49,229.9924,229.9924,69.60844,-51.46237,-999.00,-999.00,-999.0,no,no,no,4433879,SPIT,USIABP,ICE-PPR<br>DiskoBay,North
2021-08-18T00:19:00Z,1629245940,2021,0,19,230.0132,230.0132,69.6126,-51.46786,-999.00,-999.00,-999.0,no,no,no,4433879,SPIT,USIABP,ICE-PPR<br>DiskoBay,North
2021-08-18T00:48:57Z,1629247738,2021,0,49,230.034,230.034,69.61624,-51.47293,-999.00,-999.00,-999.0,no,no,no,4433879,SPIT,USIABP,ICE-PPR<br>DiskoBay,North
2021-08-18T01:18:02Z,1629249483,2021,1,18,230.0542,230.0542,69.61938,-51.47757,-999.00,-999.00,-999.0,no,no,no,4433879,SPIT,USIABP,ICE-PPR<br>DiskoBay,North
2021-08-18T01:48:00Z,1629251280,2021,1,48,230.075,230.075,69.62242,-51.48317,-999.00,-999.00,-999.0,no,no,no,4433879,SPIT,USIABP,ICE-PPR<br>DiskoBay,North
2021-08-18T02:17:57Z,1629253077,2021,2,18,230.0958,230.0958,69.62517,-51.48883,-999.00,-999.00,-999.0,no,no,no,4433879,SPIT,USIABP,ICE-PPR<br>DiskoBay,North
2021-08-18T02:48:02Z,1629254883,2021,2,48,230.1167,230.1167,69.62737,-51.49368,-999.00,-999.00,-999.0,no,no,no,4433879,SPIT,USIABP,ICE-PPR<br>DiskoBay,North
2021-08-18T03:18:00Z,1629256680,2021,3,18,230.1375,230.1375,69.629,-51.49829,-999.00,-999.00,-999.0,no,no,no,4433879,SPIT,USIABP,ICE-PPR<br>DiskoBay,North
2021-08-18T03:47:57Z,1629258477,2021,3,48,230.1583,230.1583,69.63046,-51.5025,-999.00,-999.00,-999.0,no,no,no,4433879,SPIT,USIABP,ICE-PPR<br>DiskoBay,North
2021-08-18T08:47:02Z,1629276422,2021,8,47,230.366,230.366,69.64448,-51.53568,-999.00,-999.00,-999.0,no,no,no,4433879,SPIT,USIABP,ICE-PPR<br>DiskoBay,North
2021-08-18T09:16:59Z,1629278220,2021,9,17,230.3868,230.3868,69.64675,-51.53903,-999.00,-999.00,-999.0,no,no,no,4433879,SPIT,USIABP,ICE-PPR<br>DiskoBay,North
2021-08-18T09:46:56Z,1629280017,2021,9,47,230.4076,230.4076,69.64897,-51.54352,-999.00,-999.00,-999.0,no,no,no,4433879,SPIT,USIABP,ICE-PPR<br>DiskoBay,North
2021-08-18T10:17:02Z,1629281822,2021,10,17,230.4285,230.4285,69.65151,-51.54687,-999.00,-999.00,-999.0,no,no,no,4433879,SPIT,USIABP,ICE-PPR<br>DiskoBay,North
2021-08-18T10:46:59Z,1629283620,2021,10,47,230.4493,230.4493,69.65403,-51.55005,-999.00,-999.00,-999.0,no,no,no,4433879,SPIT,USIABP,ICE-PPR<br>DiskoBay,North
2021-08-18T14:15:56Z,1629296156,2021,14,16,230.5944,230.5944,69.6627,-51.56863,-999.00,-999.00,-999.0,no,no,no,4433879,SPIT,USIABP,ICE-PPR<br>DiskoBay,North
2021-08-18T14:46:01Z,1629297962,2021,14,46,230.6153,230.6153,69.66276,-51.57158,-999.00,-999.00,-999.0,no,no,no,4433879,SPIT,USIABP,ICE-PPR<br>DiskoBay,North
2021-08-18T15:15:59Z,1629299759,2021,15,16,230.6361,230.6361,69.66264,-51.57467,-999.00,-999.00,-999.0,no,no,no,4433879,SPIT,USIABP,ICE-PPR<br>DiskoBay,North
2021-08-18T15:45:56Z,1629301556,2021,15,46,230.6569,230.6569,69.66238,-51.57776,-999.00,-999.00,-999.0,no,no,no,4433879,SPIT,USIABP,ICE-PPR<br>DiskoBay,North
2021-08-18T16:16:01Z,1629303362,2021,16,16,230.6778,230.6778,69.66228,-51.58075,-999.00,-999.00,-999.0,no,no,no,4433879,SPIT,USIABP,ICE-PPR<br>DiskoBay,North
2021-08-18T16:45:59Z,1629305159,2021,16,46,230.6986,230.6986,69.66257,-51.58405,-999.00,-999.00,-999.0,no,no,no,4433879,SPIT,USIABP,ICE-PPR<br>DiskoBay,North
2021-08-18T17:15:56Z,1629306956,2021,17,16,230.7194,230.7194,69.66339,-51.58817,-999.00,-999.00,-999.0,no,no,no,4433879,SPIT,USIABP,ICE-PPR<br>DiskoBay,North
2021-08-18T17:46:01Z,1629308762,2021,17,46,230.7403,230.7403,69.66468,-51.59229,-999.00,-999.00,-999.0,no,no,no,4433879,SPIT,USIABP,ICE-PPR<br>DiskoBay,North
2021-08-18T18:14:58Z,1629310499,2021,18,15,230.7604,230.7604,69.66631,-51.5961,-999.00,-999.00,-999.0,no,no,no,4433879,SPIT,USIABP,ICE-PPR<br>DiskoBay,North
2021-08-18T18:44:55Z,1629312296,2021,18,45,230.7812,230.7812,69.66844,-51.59962,-999.00,-999.00,-999.0,no,no,no,4433879,SPIT,USIABP,ICE-PPR<br>DiskoBay,North
2021-08-18T19:15:01Z,1629314101,2021,19,15,230.8021,230.8021,69.67084,-51.60211,-999.00,-999.00,-999.0,no,no,no,4433879,SPIT,USIABP,ICE-PPR<br>DiskoBay,North
2021-08-18T19:44:58Z,1629315899,2021,19,45,230.8229,230.8229,69.67328,-51.60477,-999.00,-999.00,-999.0,no,no,no,4433879,SPIT,USIABP,ICE-PPR<br>DiskoBay,North
2021-08-18T20:14:03Z,1629317644,2021,20,14,230.8431,230.8431,69.67577,-51.60834,-999.00,-999.00,-999.0,no,no,no,4433879,SPIT,USIABP,ICE-PPR<br>DiskoBay,North
2021-08-18T20:44:00Z,1629319441,2021,20,44,230.8639,230.8639,69.67895,-51.61237,-999.00,-999.00,-999.0,no,no,no,4433879,SPIT,USIABP,ICE-PPR<br>DiskoBay,North
2021-08-18T21:13:58Z,1629321238,2021,21,14,230.8847,230.8847,69.6823,-51.61658,-999.00,-999.00,-999.0,no,no,no,4433879,SPIT,USIABP,ICE-PPR<br>DiskoBay,North
2021-08-18T21:44:03Z,1629323044,2021,21,44,230.9056,230.9056,69.68608,-51.62167,-999.00,-999.00,-999.0,no,no,no,4433879,SPIT,USIABP,ICE-PPR<br>DiskoBay,North
2021-08-18T22:14:00Z,1629324841,2021,22,14,230.9264,230.9264,69.68998,-51.62692,-999.00,-999.00,-999.0,no,no,no,4433879,SPIT,USIABP,ICE-PPR<br>DiskoBay,North
2021-08-18T22:43:58Z,1629326638,2021,22,44,230.9472,230.9472,69.69341,-51.63361,-999.00,-999.00,-999.0,no,no,no,4433879,SPIT,USIABP,ICE-PPR<br>DiskoBay,North
2021-08-18T23:14:03Z,1629328444,2021,23,14,230.9681,230.9681,69.69673,-51.6409,-999.00,-999.00,-999.0,no,no,no,4433879,SPIT,USIABP,ICE-PPR<br>DiskoBay,North
2021-08-19T00:13:58Z,1629332038,2021,0,14,231.0097,231.0097,69.70238,-51.65484,-999.00,-999.00,-999.0,no,no,no,4433879,SPIT,USIABP,ICE-PPR<br>DiskoBay,North
2021-08-19T00:44:03Z,1629333844,2021,0,44,231.0306,231.0306,69.70397,-51.66162,-999.00,-999.00,-999.0,no,no,no,4433879,SPIT,USIABP,ICE-PPR<br>DiskoBay,North
2021-08-19T01:42:57Z,1629337378,2021,1,43,231.0715,231.0715,69.70612,-51.67593,-999.00,-999.00,-999.0,no,no,no,4433879,SPIT,USIABP,ICE-PPR<br>DiskoBay,North
2021-08-19T02:13:03Z,1629339183,2021,2,13,231.0924,231.0924,69.70694,-51.68314,-999.00,-999.00,-999.0,no,no,no,4433879,SPIT,USIABP,ICE-PPR<br>DiskoBay,North
2021-08-19T02:43:00Z,1629340980,2021,2,43,231.1132,231.1132,69.70723,-51.68976,-999.00,-999.00,-999.0,no,no,no,4433879,SPIT,USIABP,ICE-PPR<br>DiskoBay,North
2021-08-19T04:12:00Z,1629346320,2021,4,12,231.175,231.175,69.70802,-51.70821,-999.00,-999.00,-999.0,no,no,no,4433879,SPIT,USIABP,ICE-PPR<br>DiskoBay,North
2021-08-19T04:41:57Z,1629348117,2021,4,42,231.1958,231.1958,69.7078,-51.71147,-999.00,-999.00,-999.0,no,no,no,4433879,SPIT,USIABP,ICE-PPR<br>DiskoBay,North
2021-08-19T05:12:02Z,1629349923,2021,5,12,231.2167,231.2167,69.70681,-51.71362,-999.00,-999.00,-999.0,no,no,no,4433879,SPIT,USIABP,ICE-PPR<br>DiskoBay,North
2021-08-19T05:42:00Z,1629351720,2021,5,42,231.2375,231.2375,69.70556,-51.71613,-999.00,-999.00,-999.0,no,no,no,4433879,SPIT,USIABP,ICE-PPR<br>DiskoBay,North
2021-08-19T06:11:57Z,1629353517,2021,6,12,231.2583,231.2583,69.70403,-51.71793,-999.00,-999.00,-999.0,no,no,no,4433879,SPIT,USIABP,ICE-PPR<br>DiskoBay,North
2021-08-19T12:10:56Z,1629375057,2021,12,11,231.5076,231.5076,69.72099,-51.75302,-999.00,-999.00,-999.0,no,no,no,4433879,SPIT,USIABP,ICE-PPR<br>DiskoBay,North
2021-08-19T13:39:56Z,1629380396,2021,13,40,231.5694,231.5694,69.72619,-51.75198,-999.00,-999.00,-999.0,no,no,no,4433879,SPIT,USIABP,ICE-PPR<br>DiskoBay,North
2021-08-19T14:10:01Z,1629382202,2021,14,10,231.5903,231.5903,69.72713,-51.75198,-999.00,-999.00,-999.0,no,no,no,4433879,SPIT,USIABP,ICE-PPR<br>DiskoBay,North
2021-08-20T01:07:58Z,1629421678,2021,1,8,232.0472,232.0472,69.77703,-51.73776,-999.00,-999.00,-999.0,no,no,no,4433879,SPIT,USIABP,ICE-PPR<br>DiskoBay,North
2021-08-20T02:08:00Z,1629425281,2021,2,8,232.0889,232.0889,69.78176,-51.73961,-999.00,-999.00,-999.0,no,no,no,4433879,SPIT,USIABP,ICE-PPR<br>DiskoBay,North
2021-08-20T02:37:58Z,1629427078,2021,2,38,232.1097,232.1097,69.78395,-51.73987,-999.00,-999.00,-999.0,no,no,no,4433879,SPIT,USIABP,ICE-PPR<br>DiskoBay,North
2021-08-20T03:08:03Z,1629428884,2021,3,8,232.1306,232.1306,69.78563,-51.7403,-999.00,-999.00,-999.0,no,no,no,4433879,SPIT,USIABP,ICE-PPR<br>DiskoBay,North
2021-08-20T05:08:00Z,1629436081,2021,5,8,232.2139,232.2139,69.78916,-51.7298,-999.00,-999.00,-999.0,no,no,no,4433879,SPIT,USIABP,ICE-PPR<br>DiskoBay,North
2021-08-20T05:37:58Z,1629437878,2021,5,38,232.2347,232.2347,69.78912,-51.72388,-999.00,-999.00,-999.0,no,no,no,4433879,SPIT,USIABP,ICE-PPR<br>DiskoBay,North
2021-08-20T06:07:03Z,1629439623,2021,6,7,232.2549,232.2549,69.78896,-51.71756,-999.00,-999.00,-999.0,no,no,no,4433879,SPIT,USIABP,ICE-PPR<br>DiskoBay,North
2021-08-20T06:37:00Z,1629441420,2021,6,37,232.2757,232.2757,69.78857,-51.71091,-999.00,-999.00,-999.0,no,no,no,4433879,SPIT,USIABP,ICE-PPR<br>DiskoBay,North
2021-08-22T05:26:00Z,1629609961,2021,5,26,234.2264,234.2264,69.93009,-51.75113,-999.00,-999.00,-999.0,no,no,no,4433879,SPIT,USIABP,ICE-PPR<br>DiskoBay,North
2021-08-22T19:23:57Z,1629660237,2021,19,24,234.8083,234.8083,69.94674,-51.86084,-999.00,-999.00,-999.0,no,no,no,4433879,SPIT,USIABP,ICE-PPR<br>DiskoBay,North
2021-08-22T20:52:56Z,1629665577,2021,20,53,234.8701,234.8701,69.94557,-51.87411,-999.00,-999.00,-999.0,no,no,no,4433879,SPIT,USIABP,ICE-PPR<br>DiskoBay,North
2021-08-22T21:23:02Z,1629667382,2021,21,23,234.891,234.891,69.94591,-51.87943,-999.00,-999.00,-999.0,no,no,no,4433879,SPIT,USIABP,ICE-PPR<br>DiskoBay,North
2021-08-22T21:52:59Z,1629669180,2021,21,53,234.9118,234.9118,69.94617,-51.88406,-999.00,-999.00,-999.0,no,no,no,4433879,SPIT,USIABP,ICE-PPR<br>DiskoBay,North
2021-08-22T22:22:56Z,1629670977,2021,22,23,234.9326,234.9326,69.94629,-51.88876,-999.00,-999.00,-999.0,no,no,no,4433879,SPIT,USIABP,ICE-PPR<br>DiskoBay,North
2021-08-22T22:53:02Z,1629672782,2021,22,53,234.9535,234.9535,69.94649,-51.89389,-999.00,-999.00,-999.0,no,no,no,4433879,SPIT,USIABP,ICE-PPR<br>DiskoBay,North
2021-08-22T23:22:59Z,1629674580,2021,23,23,234.9743,234.9743,69.94652,-51.90045,-999.00,-999.00,-999.0,no,no,no,4433879,SPIT,USIABP,ICE-PPR<br>DiskoBay,North
2021-08-22T23:52:56Z,1629676377,2021,23,53,234.9951,234.9951,69.94656,-51.91023,-999.00,-999.00,-999.0,no,no,no,4433879,SPIT,USIABP,ICE-PPR<br>DiskoBay,North
2021-08-23T00:23:02Z,1629678182,2021,0,23,235.016,235.016,69.94682,-51.92242,-999.00,-999.00,-999.0,no,no,no,4433879,SPIT,USIABP,ICE-PPR<br>DiskoBay,North
2021-08-23T09:49:58Z,1629712198,2021,9,50,235.4097,235.4097,69.92386,-52.14902,-999.00,-999.00,-999.0,no,no,no,4433879,SPIT,USIABP,ICE-PPR<br>DiskoBay,North
2021-08-23T10:20:03Z,1629714004,2021,10,20,235.4306,235.4306,69.92148,-52.15192,-999.00,-999.00,-999.0,no,no,no,4433879,SPIT,USIABP,ICE-PPR<br>DiskoBay,North
2021-08-23T10:50:00Z,1629715801,2021,10,50,235.4514,235.4514,69.919,-52.15533,-999.00,-999.00,-999.0,no,no,no,4433879,SPIT,USIABP,ICE-PPR<br>DiskoBay,North
2021-08-23T11:19:58Z,1629717598,2021,11,20,235.4722,235.4722,69.91647,-52.15936,-999.00,-999.00,-999.0,no,no,no,4433879,SPIT,USIABP,ICE-PPR<br>DiskoBay,North
2021-08-23T13:49:00Z,1629726540,2021,13,49,235.5757,235.5757,69.90418,-52.20578,-999.00,-999.00,-999.0,no,no,no,4433879,SPIT,USIABP,ICE-PPR<br>DiskoBay,North
2021-08-23T17:49:03Z,1629740943,2021,17,49,235.7424,235.7424,69.89449,-52.32617,-999.00,-999.00,-999.0,no,no,no,4433879,SPIT,USIABP,ICE-PPR<br>DiskoBay,North
2021-08-23T18:19:00Z,1629742740,2021,18,19,235.7632,235.7632,69.89463,-52.33286,-999.00,-999.00,-999.0,no,no,no,4433879,SPIT,USIABP,ICE-PPR<br>DiskoBay,North
2021-08-23T18:48:57Z,1629744538,2021,18,49,235.784,235.784,69.89411,-52.33823,-999.00,-999.00,-999.0,no,no,no,4433879,SPIT,USIABP,ICE-PPR<br>DiskoBay,North
2021-08-23T19:19:03Z,1629746343,2021,19,19,235.8049,235.8049,69.89355,-52.34158,-999.00,-999.00,-999.0,no,no,no,4433879,SPIT,USIABP,ICE-PPR<br>DiskoBay,North
2021-08-23T19:49:00Z,1629748140,2021,19,49,235.8257,235.8257,69.8929,-52.34204,-999.00,-999.00,-999.0,no,no,no,4433879,SPIT,USIABP,ICE-PPR<br>DiskoBay,North
2021-08-23T20:18:57Z,1629749938,2021,20,19,235.8465,235.8465,69.89198,-52.3436,-999.00,-999.00,-999.0,no,no,no,4433879,SPIT,USIABP,ICE-PPR<br>DiskoBay,North
2021-08-23T20:49:03Z,1629751743,2021,20,49,235.8674,235.8674,69.89134,-52.34518,-999.00,-999.00,-999.0,no,no,no,4433879,SPIT,USIABP,ICE-PPR<br>DiskoBay,North
2021-08-23T21:19:00Z,1629753540,2021,21,19,235.8882,235.8882,69.89113,-52.34537,-999.00,-999.00,-999.0,no,no,no,4433879,SPIT,USIABP,ICE-PPR<br>DiskoBay,North
2021-08-23T21:48:57Z,1629755338,2021,21,49,235.909,235.909,69.89121,-52.34647,-999.00,-999.00,-999.0,no,no,no,4433879,SPIT,USIABP,ICE-PPR<br>DiskoBay,North
2021-08-23T22:19:03Z,1629757143,2021,22,19,235.9299,235.9299,69.8912,-52.34851,-999.00,-999.00,-999.0,no,no,no,4433879,SPIT,USIABP,ICE-PPR<br>DiskoBay,North
2021-08-23T22:48:00Z,1629758880,2021,22,48,235.95,235.95,69.89133,-52.35049,-999.00,-999.00,-999.0,no,no,no,4433879,SPIT,USIABP,ICE-PPR<br>DiskoBay,North
2021-08-23T23:18:57Z,1629760738,2021,23,19,235.9715,235.9715,69.89158,-52.35345,-999.00,-999.00,-999.0,no,no,no,4433879,SPIT,USIABP,ICE-PPR<br>DiskoBay,North
2021-08-24T11:15:56Z,1629803756,2021,11,16,236.4694,236.4694,69.92896,-52.53937,-999.00,-999.00,-999.0,no,no,no,4433879,SPIT,USIABP,ICE-PPR<br>DiskoBay,North
2021-08-24T11:45:01Z,1629805501,2021,11,45,236.4896,236.4896,69.9334,-52.54168,-999.00,-999.00,-999.0,no,no,no,4433879,SPIT,USIABP,ICE-PPR<br>DiskoBay,North
2021-08-24T12:14:58Z,1629807299,2021,12,15,236.5104,236.5104,69.93666,-52.54408,-999.00,-999.00,-999.0,no,no,no,4433879,SPIT,USIABP,ICE-PPR<br>DiskoBay,North
2021-08-24T12:44:55Z,1629809096,2021,12,45,236.5312,236.5312,69.93944,-52.5488,-999.00,-999.00,-999.0,no,no,no,4433879,SPIT,USIABP,ICE-PPR<br>DiskoBay,North
2021-08-24T13:44:58Z,1629812699,2021,13,45,236.5729,236.5729,69.94595,-52.56342,-999.00,-999.00,-999.0,no,no,no,4433879,SPIT,USIABP,ICE-PPR<br>DiskoBay,North
2021-08-24T20:44:00Z,1629837841,2021,20,44,236.8639,236.8639,69.99078,-52.6817,-999.00,-999.00,-999.0,no,no,no,4433879,SPIT,USIABP,ICE-PPR<br>DiskoBay,North
2021-08-24T21:14:58Z,1629839699,2021,21,15,236.8854,236.8854,69.99517,-52.67865,-999.00,-999.00,-999.0,no,no,no,4433879,SPIT,USIABP,ICE-PPR<br>DiskoBay,North
2021-08-24T21:44:03Z,1629841444,2021,21,44,236.9056,236.9056,69.99858,-52.67303,-999.00,-999.00,-999.0,no,no,no,4433879,SPIT,USIABP,ICE-PPR<br>DiskoBay,North
